格洛纳斯-713 COSMOS 1491 [GLONASS]

导读

COSMOS 1491是苏联(CIS)于1983年8月10日发射的首代GLONASS导航试验卫星,隶属于格洛纳斯全球卫星导航系统的早期组网任务。它运行在约19100公里的中地球轨道,轨道倾角64.8°,搭载L波段导航信号发射器,依托太阳能供电,旨在验证卫星导航系统组网与定位服务能力,是苏联GLONASS系统发展历程中的早期重要节点。

基本信息
目录编号:
14259
目录名称:
COSMOS 1491 (GLONASS)
国际标识:
1983-084B
轨道中心:
EARTH
卫星名称:
格洛纳斯-713
卫星全名:
格洛纳斯-713 COSMOS 1491 [GLONASS]
卫星状态:
在轨 (已飞行15692 天)
发射日期:
1983-08-10 UTC
国别 :
俄罗斯(独联体) (CIS)
星等 :
--
轨道信息
数据来源 国际轨道数据
星历时间: 2026-07-24T15:25:50+0800
3天前
查看轨道信息
半长轴: 25323.544km
偏心率: 0.001945
轨道倾角: 65.049°
近地点辐角 304.041°
升交点赤经 56.766°
平近点角 265.924°
近地点: 18896.152km
远地点: 18994.662km
周期: 668.415分钟
每日圈数: 2.154349
详细信息
平衡模式:
三轴稳定
覆盖范围:
全球
运营商:
列舍特涅夫卫星信息系统
运营商所在国:
俄罗斯
制造商(研发单位):
列舍特涅夫卫星信息系统
制造商所在国:
俄罗斯
使用方式:
暂无
卫星简介
格洛纳斯(GLONASS )是苏联/俄罗斯研制卫星导航系统。标准配置为24颗卫星,其中18颗卫星就能保证该系统为俄罗斯境内用户提供全部服务。该卫星已退役。
2D轨道图
3D轨道图
轨道高度分析图
轨道倾角分析图
轨道综合分析图
查看轨道综合分析图